[[{"header":{"parameterUnit":"m.s-1","parameterCategory":1,"la1":30.2991,"la2":30.254,"lo1":-89.0895,"lo2":-89.0444,"dy":0.0017,"dx":0.0017,"nx":28,"ny":28,"refTime":"2024-07-10T21:00:00:Z","depth":0,"parameterNumber":2,"parameterNumberName":"U-component_of_WINDS"},"data":[0,0,0,0,0,0,0,0,0,0,0,0,0,0,0,0,0,0,0,0,0,0,0,0,0,0,0,0,0,0,0,0,0,0,0,0,0,0,0,0,0,0,0,0,0,0,0,0,0,0,0,0,0,0,0,0,0,0,1.2226,1.2227,0,1.2284,1.2285,1.2286,1.2274,1.2272,1.2271,1.227,1.233,1.2333,1.2335,0,0,0,0,0,0,0,0,0,0,0,0,0,1.2104,1.2106,1.2226,1.2227,1.2228,1.2284,1.2285,1.2286,1.2274,1.2272,1.2271,1.227,1.233,1.2333,1.2336,0,0,0,0,0,0,0,0,0,0,0,0,0,1.2159,1.2107,1.2226,1.2229,1.2229,1.2284,1.2285,1.2286,1.2274,1.2272,1.2271,1.2269,1.2329,1.2332,1.2336,1.2392,0,0,1.2348,1.235,0,0,0,0,0,0,0,0,1.2156,1.2164,1.2227,1.2228,1.2229,1.227,1.2264,1.2322,1.2274,1.2257,1.227,1.2268,1.2312,1.2317,1.2331,1.2395,1.2398,1.2348,1.2351,1.2352,1.2354,0,0,0,0,0,0,0,1.2152,1.2161,1.2249,1.2228,1.223,1.2226,1.2232,1.2275,1.2293,1.2258,1.2258,1.2265,1.2312,1.2327,1.2333,1.2399,1.2348,1.2352,1.2354,1.2356,1.2509,1.251,0,0,0,0,0,0,1.2148,1.2158,1.2247,1.2251,1.2188,1.223,1.2237,1.2259,1.2292,1.2296,1.2266,1.2264,1.2322,1.2328,1.2335,1.2401,1.2352,1.2356,1.2358,1.2507,1.2509,1.2511,0,0,0,0,0,0,1.2145,1.2156,1.2245,1.2204,1.2215,1.2234,1.2258,1.2261,1.2276,1.2298,1.2301,1.2279,1.2321,1.2329,1.2377,1.2403,1.2358,1.2361,1.2505,1.2508,1.251,1.2535,0,0,0,0,0,0,1.2142,1.2155,1.2177,1.2205,1.2218,1.2287,1.226,1.2263,1.2283,1.2281,1.2311,1.2314,1.232,1.2372,1.2381,1.2407,1.2364,1.2503,1.2506,1.2509,1.2532,1.2538,1.2543,0,0,0,0,0,1.2137,1.2182,1.2178,1.2189,1.2245,1.2289,1.2296,1.2302,1.2285,1.2307,1.232,1.2313,1.2399,1.2377,1.2387,1.2415,1.2501,1.2505,1.2509,1.2529,1.2537,1.2543,0,0,0,0,0,0,1.2157,1.2186,1.2182,1.2237,1.226,1.2287,1.2315,1.231,1.2339,1.2336,1.2342,1.2349,1.2397,1.2411,1.2386,1.247,1.2447,1.2454,1.2459,1.2466,1.2472,1.2467,1.2368,0,0,0,0,0,1.2168,1.2201,1.2224,1.2271,1.2283,1.2296,1.2316,1.2318,1.2343,1.2353,1.237,1.2394,1.2426,1.2447,1.2478,1.2534,1.2539,1.2558,1.2564,1.2568,1.2573,1.2602,1.261,1.2524,1.2524,1.2524,0,0,1.2191,1.221,1.2231,1.2275,1.2294,1.2327,1.2305,1.2342,1.2366,1.2358,1.2404,1.2418,1.2445,1.2497,1.252,1.251,1.2598,1.2573,1.2577,1.2579,1.2607,1.2615,1.2622,1.2526,1.2526,1.2526,0,0,1.2249,1.2268,1.2307,1.2326,1.2354,1.2362,1.2372,1.2399,1.2407,1.2453,1.2447,1.2476,1.2532,1.2551,1.2568,1.2631,1.2625,1.2641,1.267,1.2698,1.2705,1.2711,1.2732,1.2739,1.2646,1.2646,1.2646,0,1.2273,1.2324,1.2329,1.2365,1.2384,1.2378,1.2417,1.2435,1.2472,1.2485,1.2472,1.254,1.2558,1.2613,1.2628,1.2643,1.2653,1.2637,1.2703,1.271,1.2715,1.2735,1.2743,1.2648,1.2647,1.2647,1.2647,0,1.2352,1.2387,1.2415,1.245,1.2472,1.251,1.252,1.2542,1.2542,1.2551,1.2598,1.2619,1.2653,1.2666,1.2667,1.2721,1.2713,1.2702,1.2679,1.2725,1.2744,1.2752,1.265,1.2649,1.2649,1.2649,0,0,1.2425,1.246,1.2471,1.2485,1.2515,1.2542,1.2579,1.2612,1.2629,1.2655,1.2685,1.2731,1.272,1.274,1.2742,1.2767,1.2813,1.2752,1.2753,1.2762,1.2871,1.2879,1.2888,1.2809,1.281,1.2812,1.2869,0,1.2484,1.255,1.2555,1.2613,1.2645,1.2638,1.267,1.2691,1.2701,1.2728,1.2739,1.2771,1.2755,1.2766,1.279,1.2802,1.2835,1.2798,1.2836,1.2838,1.2829,1.2898,1.2906,1.2959,1.2876,1.2877,1.2878,0,1.2563,1.259,1.2651,1.2675,1.2688,1.2717,1.2746,1.2773,1.2796,1.2801,1.2821,1.282,1.2857,1.2833,1.2883,1.2858,1.2874,1.2882,1.2884,1.2887,1.286,1.2902,1.2976,1.2984,1.289,1.2889,1.2889,0,1.2608,1.2659,1.2702,1.2716,1.2744,1.2764,1.2777,1.2799,1.2817,1.2843,1.2855,1.2884,1.29,1.2923,1.2929,1.2911,1.2979,1.2956,1.2983,1.2983,1.2997,1.2996,1.3074,1.3009,1.3009,1.3009,1.3009,0,1.2674,1.2711,1.2723,1.2749,1.2791,1.2795,1.2836,1.2848,1.2866,1.2894,1.2891,1.2917,1.2924,1.2951,1.2956,1.2995,1.3003,1.3008,1.3008,1.3007,1.3007,1.3017,1.3013,1.3011,1.301,1.301,1.301,0,1.2731,1.274,1.2787,1.2809,1.2816,1.2845,1.2865,1.2889,1.2898,1.2933,1.2941,1.2955,1.2986,1.2995,1.3033,1.3036,1.3082,1.308,1.3074,1.3074,1.31,1.3097,1.3187,1.3198,1.3127,1.3127,1.3128,0,1.2772,1.28,1.2826,1.2844,1.2858,1.2887,1.2906,1.2911,1.2931,1.2958,1.2979,1.301,1.3035,1.3085,1.3098,1.3126,1.3124,1.3154,1.3129,1.3126,1.3123,1.3121,1.3123,1.3158,1.3159,1.316,1.316,0,1.2843,1.2845,1.2873,1.2901,1.2923,1.2946,1.2968,1.2983,1.2991,1.3013,1.3044,1.3064,1.3101,1.3131,1.316,1.3172,1.3167,1.3168,1.3176,1.3175,1.3169,1.3171,1.3086,1.3166,1.3165,1.3165,1.3165,1.3164,1.2892,1.2916,1.2938,1.2968,1.2984,1.3004,1.3028,1.3039,1.3066,1.3097,1.3098,1.3132,1.3153,1.319,1.3204,1.323,1.3221,1.3233,1.3235,1.3238,1.3239,1.3166,1.3235,1.3235,1.3235,1.3235,1.3235,0,1.2961,1.2974,1.3002,1.3032,1.3055,1.3048,1.3071,1.3091,1.3121,1.314,1.3165,1.32,1.3229,1.3243,1.3271,1.3289,1.3288,1.3297,1.3295,1.3297,1.3246,1.3236,1.3297,1.3297,1.3297,1.3297,1.3297,1.3297,1.3,1.304,1.3045,1.3093,1.3106,1.3139,1.3153,1.3171,1.3186,1.3226,1.325,1.3259,1.3276,1.3305,1.333,1.3334,1.3344,1.3354,1.3356,1.3308,1.3301,1.3295,1.3286,1.3356,1.3356,1.3404,1.3405,1.3405]},{"header":{"parameterUnit":"m.s-1","parameterCategory":1,"la1":30.2991,"la2":30.254,"lo1":-89.0895,"lo2":-89.0444,"dy":0.0017,"dx":0.0017,"nx":28,"ny":28,"refTime":"2024-07-10T21:00:00:Z","depth":0,"parameterNumber":3,"parameterNumberName":"V-component_of_WINDS"},"data":[0,0,0,0,0,0,0,0,0,0,0,0,0,0,0,0,0,0,0,0,0,0,0,0,0,0,0,0,0,0,0,0,0,0,0,0,0,0,0,0,0,0,0,0,0,0,0,0,0,0,0,0,0,0,0,0,0,0,3.8398,3.8397,0,3.838,3.838,3.8379,3.8402,3.8403,3.8404,3.8405,3.8381,3.838,3.8378,0,0,0,0,0,0,0,0,0,0,0,0,0,3.8446,3.8445,3.8398,3.8397,3.8397,3.838,3.838,3.8379,3.8402,3.8403,3.8404,3.8405,3.8382,3.838,3.8378,0,0,0,0,0,0,0,0,0,0,0,0,0,3.8426,3.8444,3.8398,3.8407,3.8407,3.838,3.838,3.8379,3.8402,3.8403,3.8404,3.8406,3.8382,3.838,3.8378,3.8339,0,0,3.8371,3.8371,0,0,0,0,0,0,0,0,3.8427,3.8424,3.8405,3.8406,3.8407,3.8395,3.8388,3.8366,3.8402,3.8404,3.8405,3.8406,3.8384,3.8382,3.8376,3.8338,3.8337,3.8371,3.837,3.8369,3.8368,0,0,0,0,0,0,0,3.8428,3.8425,3.839,3.8405,3.8406,3.841,3.8408,3.8384,3.8387,3.8404,3.8405,3.8403,3.8385,3.8378,3.8375,3.8337,3.8371,3.8369,3.8368,3.8367,3.8265,3.8264,0,0,0,0,0,0,3.8429,3.8426,3.8391,3.839,3.842,3.8408,3.8406,3.8397,3.8387,3.8387,3.8402,3.8404,3.8381,3.8378,3.8375,3.8327,3.8369,3.8367,3.8366,3.8266,3.8265,3.8263,0,0,0,0,0,0,3.843,3.8426,3.8392,3.8408,3.8404,3.8406,3.8395,3.8396,3.8389,3.8386,3.8386,3.8395,3.8382,3.8378,3.8348,3.8327,3.8366,3.8364,3.8268,3.8266,3.8264,3.8233,0,0,0,0,0,0,3.8432,3.8426,3.8413,3.8408,3.8403,3.8367,3.8394,3.8395,3.8386,3.8389,3.8379,3.8379,3.8382,3.8351,3.8346,3.8325,3.8363,3.827,3.8267,3.8265,3.8236,3.823,3.8225,0,0,0,0,0,3.8433,3.8404,3.8412,3.8408,3.8387,3.8366,3.8363,3.8369,3.8384,3.837,3.8368,3.8379,3.8331,3.8348,3.8342,3.832,3.8271,3.8268,3.8265,3.8239,3.8232,3.8226,0,0,0,0,0,0,3.8405,3.8404,3.8412,3.8381,3.8374,3.837,3.8352,3.8362,3.8348,3.8351,3.8358,3.8355,3.8323,3.8319,3.8338,3.8281,3.8303,3.8299,3.8285,3.8278,3.8273,3.8274,3.8361,0,0,0,0,0,3.8395,3.838,3.8379,3.8352,3.8347,3.835,3.8341,3.8347,3.8338,3.8335,3.833,3.832,3.8302,3.829,3.8274,3.8236,3.8233,3.8218,3.8213,3.8208,3.8204,3.8181,3.8174,3.8253,3.8253,3.8253,0,0,3.8374,3.8372,3.8362,3.8346,3.834,3.8322,3.8347,3.8327,3.8313,3.8331,3.8303,3.8299,3.8288,3.8254,3.8239,3.8249,3.8182,3.8204,3.8201,3.8198,3.8177,3.817,3.8163,3.825,3.8251,3.8251,0,0,3.8327,3.8325,3.8301,3.8296,3.8288,3.829,3.8284,3.8279,3.8278,3.825,3.8262,3.8245,3.8215,3.8206,3.8198,3.8147,3.8156,3.8141,3.8112,3.8091,3.8084,3.8079,3.8059,3.8052,3.8137,3.8137,3.8137,0,3.8302,3.8277,3.8287,3.8266,3.8258,3.8275,3.825,3.8243,3.823,3.8223,3.8236,3.8198,3.8191,3.8154,3.8142,3.8135,3.8127,3.8142,3.8085,3.8079,3.8074,3.8055,3.8048,3.8135,3.8135,3.8136,3.8136,0,3.8245,3.8228,3.8209,3.8197,3.8187,3.8164,3.8168,3.8157,3.8163,3.8163,3.8134,3.8127,3.8109,3.8101,3.8107,3.8064,3.8071,3.8084,3.8106,3.8065,3.8047,3.804,3.8133,3.8133,3.8134,3.8134,0,0,3.8178,3.8173,3.8166,3.816,3.8153,3.8138,3.8115,3.8099,3.8088,3.8078,3.8057,3.8032,3.8044,3.8034,3.8039,3.802,3.7978,3.8035,3.8035,3.8023,3.7928,3.7917,3.7908,3.7985,3.7983,3.7982,3.7928,0,3.8129,3.8092,3.81,3.8061,3.8044,3.806,3.804,3.8032,3.8032,3.8015,3.8014,3.7995,3.8014,3.8008,3.799,3.7987,3.7958,3.7991,3.7963,3.7962,3.7963,3.7899,3.7887,3.7836,3.7922,3.792,3.792,0,3.8067,3.8057,3.8017,3.8012,3.8005,3.7987,3.7972,3.7957,3.7948,3.7949,3.7938,3.7946,3.7921,3.7945,3.7909,3.7931,3.792,3.7917,3.7915,3.791,3.7937,3.7891,3.782,3.7812,3.7909,3.791,3.7911,0,3.802,3.7996,3.7968,3.7963,3.7957,3.7944,3.794,3.7933,3.7922,3.7909,3.7902,3.7885,3.7875,3.7862,3.7864,3.7882,3.7826,3.7851,3.7824,3.7824,3.781,3.781,3.7735,3.7807,3.7807,3.7807,3.7807,0,3.7963,3.7938,3.7947,3.793,3.7901,3.791,3.7881,3.7879,3.7872,3.7854,3.7867,3.7848,3.7854,3.7835,3.7837,3.7806,3.7802,3.78,3.78,3.7798,3.7797,3.7789,3.7791,3.7805,3.7805,3.7806,3.7806,0,3.7905,3.791,3.7881,3.7878,3.7877,3.7855,3.7852,3.7835,3.7836,3.7812,3.7807,3.7807,3.7786,3.7788,3.7764,3.7765,3.7725,3.7731,3.7729,3.7729,3.7701,3.7703,3.7615,3.7603,3.7685,3.7685,3.7684,0,3.7867,3.7848,3.7843,3.7833,3.7829,3.7811,3.7801,3.7809,3.7798,3.7786,3.7769,3.775,3.7734,3.7699,3.7696,3.7677,3.7681,3.7651,3.7678,3.7675,3.7677,3.7678,3.7675,3.7645,3.7644,3.7644,3.7643,0,3.7799,3.7803,3.7789,3.7775,3.7763,3.7752,3.7743,3.7733,3.7739,3.7725,3.7705,3.7693,3.7669,3.7648,3.763,3.7624,3.7633,3.7635,3.7628,3.7623,3.7622,3.762,3.7712,3.7637,3.7637,3.7638,3.7638,3.7638,3.7749,3.7732,3.7726,3.7709,3.7703,3.7694,3.7677,3.7677,3.7661,3.7643,3.7648,3.7624,3.7614,3.7591,3.7583,3.7563,3.7573,3.7563,3.756,3.7556,3.7552,3.7627,3.756,3.756,3.7561,3.7561,3.7561,0,3.768,3.7677,3.7662,3.7648,3.7635,3.7648,3.7638,3.7624,3.7604,3.7595,3.758,3.7555,3.7535,3.7531,3.7511,3.7495,3.7499,3.749,3.749,3.7488,3.7545,3.7553,3.7487,3.7487,3.7487,3.7487,3.7487,3.7487,3.7642,3.7614,3.7617,3.7585,3.7582,3.756,3.7553,3.7543,3.7536,3.7509,3.7493,3.7491,3.7483,3.7463,3.7444,3.7443,3.7434,3.7423,3.7423,3.7477,3.7484,3.7491,3.7498,3.7421,3.7421,3.7367,3.7366,3.7366]}]]